Wind_Speed
27 27 27 27 27 27 27 27 27 27 26 25 26 26 27 26 26 26 26 27 27 27 27 27 27 27 27 28 28 28 28 29 30 30 29 29 29 30
28 28 28 28 28 27 27 26 26 26 25 24 24 25 25 24 25 25 25 25 25 26 26 26 26 25 26 26 26 26 27 28 28 27 26 27 27 27
29 28 28 28 27 27 27 26 25 25 25 24 23 23 23 24 24 24 24 24 24 24 24 24 24 24 24 24 23 23 23 24 24 23 23 23 23 23
28 28 28 27 27 27 26 25 25 24 24 23 23 22 22 22 22 22 22 22 22 22 22 22 21 21 21 21 21 21 20 20 20 19 19 20 20 20
26 26 26 26 25 25 25 24 24 23 23 23 22 22 22 21 21 21 20 20 21 20 20 19 19 18 18 18 18 18 17 17 18 17 18 18 17 17
24 23 24 24 24 24 23 23 23 22 22 21 21 20 20 20 19 19 19 19 19 18 18 17 16 15 15 15 15 15 15 16 15 15 15 15 14 15
22 22 22 22 22 22 22 21 21 21 20 20 20 19 19 18 18 18 18 17 17 16 15 14 13 13 13 13 13 13 13 12 11 11 11 11 12 13
21 22 21 20 20 19 19 19 19 19 18 18 18 18 17 17 16 16 14 13 13 12 12 11 11 11 11 11 11 10 10 9 9 9 10 11 12 14
19 18 18 17 17 16 16 16 16 16 16 15 15 14 14 13 13 12 11 10 10 9 9 8 8 9 9 8 8 8 8 8 8 9 10 11 13 14
15 14 15 14 14 14 14 14 14 13 13 13 13 13 12 11 10 9 8 7 7 7 7 7 7 6 6 6 6 6 7 8 9 10 11 12 13 14
11 11 11 11 11 12 12 11 10 11 12 11 10 9 8 8 7 6 5 5 5 5 4 4 5 5 4 5 6 6 7 8 9 10 11 13 14 15
9 9 9 9 9 9 9 9 8 8 9 8 7 7 6 5 5 4 4 4 3 3 3 3 4 4 4 5 6 7 8 9 10 11 12 14 15 16
8 7 7 7 7 7 7 7 6 6 6 5 5 5 5 4 4 3 3 3 3 2 2 3 3 4 5 6 7 8 9 10 11 12 14 15 17 18
7 6 5 6 6 6 6 6 5 5 5 5 5 4 4 4 3 2 2 2 1 1 2 2 3 4 4 5 7 8 10 10 12 14 15 17 19 20
6 6 6 6 6 6 6 7 6 6 5 5 5 4 4 3 3 2 2 1 0 1 1 2 3 4 5 6 8 9 10 12 14 15 17 18 20 21
5 5 6 6 6 6 6 7 7 6 6 5 5 4 3 3 3 3 2 1 1 1 3 4 5 6 6 8 9 10 12 14 16 17 18 20 21 23
6 7 7 7 7 7 7 7 7 7 7 6 6 5 4 4 4 4 3 3 3 3 4 5 6 7 8 9 11 13 14 16 17 18 19 21 23 24
7 8 8 8 8 8 8 8 8 8 7 7 6 5 5 5 5 4 4 4 3 4 5 5 6 7 8 10 12 14 15 17 18 20 21 22 24 27
9 9 10 9 9 9 9 8 8 8 7 6 6 5 5 5 4 4 4 4 4 5 5 6 7 9 10 12 13 15 17 18 20 21 23 25 26 28
10 10 10 9 9 8 8 8 8 7 7 6 6 6 5 5 4 4 4 4 5 5 6 8 9 11 13 14 15 17 19 21 22 24 25 27 29 31
11 10 9 9 8 8 8 8 7 7 7 7 6 5 4 4 3 3 4 4 5 6 8 10 11 12 14 15 16 18 21 23 25 27 28 30 31 32
10 10 9 8 9 8 8 8 7 7 6 5 4 3 3 2 2 3 4 5 7 8 10 11 12 14 15 17 19 21 23 25 27 29 31 33 35 36
10 9 8 9 8 8 8 7 6 5 4 3 2 1 2 2 3 5 6 8 9 10 11 12 14 16 18 20 22 24 25 27 29 30 32 34 36 38
Wind_Direction
275 275 275 277 278 281 281 282 281 281 278 277 277 277 279 280 281 280 282 282 281 282 282 284 284 284 283 283 283 283 283 284 284 286 286 285 286 285
275 275 275 275 276 278 279 280 279 280 279 278 277 276 277 279 281 281 282 283 282 283 284 286 286 284 285 285 286 287 287 286 286 287 289 289 289 288
274 274 274 274 274 275 276 277 277 277 278 277 277 278 279 280 281 281 282 283 284 284 286 288 288 287 286 287 288 289 289 288 290 291 293 293 291 290
274 274 273 273 273 273 272 272 273 274 275 275 276 278 279 280 280 281 282 282 285 285 287 289 288 288 287 287 287 287 288 291 296 297 296 294 292 292
274 274 272 271 271 271 269 268 270 271 272 273 274 277 279 278 279 282 282 284 284 285 288 289 289 288 288 287 286 289 293 297 300 300 298 296 299 299
274 272 271 271 270 268 267 267 268 268 268 270 272 275 276 277 279 280 281 282 284 284 287 289 288 285 285 288 291 294 298 302 302 303 305 305 306 305
273 272 270 270 268 266 265 265 266 266 266 267 270 272 274 276 278 280 281 280 281 283 288 287 285 284 288 292 297 301 305 305 307 310 312 313 313 312
273 271 270 267 264 264 263 262 263 263 263 265 268 270 273 274 276 277 280 279 281 284 287 286 285 286 292 298 301 303 308 312 314 316 318 316 316 316
274 268 263 262 261 259 260 259 259 260 262 264 265 267 269 272 273 273 275 277 279 280 284 286 290 297 299 303 309 313 313 315 317 318 321 321 321 320
272 266 261 261 255 254 259 260 257 257 258 260 263 263 262 261 263 267 269 270 273 279 284 290 301 311 312 309 309 309 315 320 324 325 325 325 326 326
268 266 264 260 254 256 256 255 254 253 252 251 253 251 251 254 255 256 261 267 275 283 292 299 307 312 311 311 315 320 327 333 335 334 332 330 329 329
258 260 260 255 250 247 246 243 245 242 241 239 238 236 235 235 237 249 261 267 274 284 298 304 307 309 319 327 332 334 338 339 337 334 332 331 330 329
250 252 251 244 238 240 233 225 225 224 222 220 217 215 216 218 226 239 250 260 269 289 301 307 317 325 335 341 343 343 339 335 333 332 332 331 330 329
230 235 229 217 217 216 206 197 195 196 198 200 203 199 198 200 209 228 248 258 268 293 319 324 333 341 347 349 347 344 340 337 335 334 333 331 330 329
210 208 204 197 196 194 187 181 178 176 175 177 178 179 182 192 206 213 212 207 245 323 346 356 358 356 354 350 346 345 343 341 339 337 335 333 331 330
194 190 184 177 173 171 172 172 171 170 168 164 161 161 165 164 159 149 138 122 89 49 31 18 8 2 356 351 349 347 345 342 339 337 336 335 333 332
177 167 162 162 161 160 160 162 160 154 148 142 138 136 131 125 125 120 108 94 75 49 34 20 9 2 357 355 352 349 346 343 342 340 338 336 334 332
159 160 160 158 154 152 151 147 143 139 137 135 132 129 123 117 112 105 93 79 58 37 25 16 10 4 358 353 348 347 346 344 341 339 337 336 334 331
148 149 148 145 143 142 142 141 139 137 134 132 127 123 119 114 105 90 76 61 46 31 19 10 3 358 354 351 348 346 344 343 341 339 337 336 334 332
139 138 139 140 141 142 141 138 135 134 132 128 123 118 112 102 90 76 59 44 31 18 8 359 353 350 348 347 346 344 343 342 340 338 336 335 334 332
137 136 135 135 136 137 136 135 135 133 131 128 122 112 98 85 72 52 30 18 6 358 352 347 345 344 343 343 342 340 339 339 337 335 334 333 333 332
137 136 136 134 134 133 134 134 131 129 128 127 119 101 79 58 34 8 353 346 342 341 340 340 340 339 338 337 337 336 336 335 335 334 333 332 332 332
140 139 139 138 135 134 133 131 128 127 128 124 107 63 25 3 347 340 336 333 333 333 333 333 334 334 333 333 333 333 333 333 333 333 333 331 331 331
Height
5802 5802 5803 5803 5803 5803 5803 5804 5804 5804 5805 5805 5806 5806 5806 5806 5805 5805 5805 5805 5805 5804 5804 5803 5803 5802 5802 5801 5800 5799 5798 5797 5796 5794 5793 5792 5790 5789
5794 5795 5795 5796 5796 5796 5797 5797 5797 5797 5798 5798 5799 5799 5799 5799 5799 5799 5798 5798 5798 5798 5797 5797 5796 5795 5795 5794 5793 5792 5791 5790 5788 5787 5786 5785 5784 5782
5786 5786 5787 5788 5788 5789 5789 5790 5790 5791 5791 5792 5792 5792 5792 5793 5793 5792 5792 5792 5792 5791 5791 5790 5789 5789 5788 5788 5787 5785 5784 5783 5782 5781 5779 5778 5777 5776
5777 5778 5778 5779 5780 5781 5782 5782 5783 5784 5785 5785 5786 5786 5786 5787 5787 5786 5786 5786 5786 5785 5785 5784 5783 5783 5782 5782 5781 5780 5779 5777 5776 5775 5774 5773 5771 5770
5769 5769 5770 5771 5772 5773 5774 5775 5776 5777 5778 5779 5780 5780 5781 5781 5781 5781 5780 5780 5780 5780 5779 5779 5778 5778 5777 5776 5776 5775 5774 5772 5771 5770 5769 5767 5766 5765
5761 5762 5763 5764 5765 5766 5767 5769 5770 5771 5772 5773 5774 5775 5775 5775 5776 5776 5776 5775 5775 5775 5774 5774 5773 5773 5772 5772 5771 5770 5769 5768 5767 5766 5764 5763 5762 5760
5754 5755 5755 5757 5758 5759 5761 5762 5763 5765 5766 5767 5768 5769 5770 5770 5771 5771 5771 5770 5770 5770 5770 5770 5769 5769 5768 5768 5767 5766 5765 5764 5763 5762 5761 5760 5758 5757
5748 5748 5749 5750 5752 5753 5755 5756 5758 5759 5761 5762 5763 5764 5765 5766 5766 5766 5766 5766 5766 5766 5766 5766 5766 5765 5765 5764 5763 5763 5762 5761 5760 5759 5758 5756 5755 5753
5741 5742 5743 5745 5746 5748 5750 5751 5753 5754 5756 5758 5759 5760 5761 5761 5762 5762 5762 5763 5763 5763 5763 5763 5763 5762 5762 5761 5760 5760 5759 5758 5757 5756 5755 5753 5752 5750
5737 5738 5739 5741 5743 5744 5746 5748 5749 5751 5752 5754 5755 5756 5757 5758 5758 5759 5759 5760 5760 5760 5760 5760 5760 5760 5759 5759 5758 5758 5757 5756 5754 5753 5751 5750 5748 5746
5735 5736 5737 5738 5740 5741 5743 5745 5746 5748 5749 5750 5752 5753 5753 5754 5755 5756 5757 5757 5758 5758 5758 5758 5758 5758 5758 5757 5756 5755 5754 5753 5752 5750 5749 5747 5745 5743
5733 5734 5735 5736 5738 5739 5741 5742 5744 5746 5747 5748 5750 5751 5752 5753 5754 5755 5755 5756 5756 5756 5757 5757 5757 5756 5756 5755 5754 5753 5752 5751 5749 5748 5746 5744 5742 5739
5732 5733 5734 5735 5736 5738 5740 5741 5743 5745 5746 5747 5748 5749 5750 5752 5752 5753 5754 5754 5755 5755 5755 5755 5755 5754 5754 5753 5753 5751 5750 5749 5747 5745 5743 5741 5738 5735
5731 5732 5733 5734 5736 5738 5739 5741 5742 5744 5745 5747 5748 5749 5750 5751 5751 5752 5752 5753 5754 5754 5754 5754 5754 5753 5753 5752 5751 5750 5748 5746 5744 5742 5740 5737 5734 5731
5730 5732 5733 5734 5736 5738 5739 5741 5743 5744 5745 5746 5747 5748 5749 5750 5751 5751 5752 5752 5753 5753 5753 5753 5753 5752 5751 5750 5749 5748 5746 5744 5742 5739 5737 5734 5730 5727
5730 5732 5733 5735 5736 5738 5740 5741 5743 5744 5745 5747 5747 5748 5749 5750 5750 5751 5752 5752 5752 5752 5752 5752 5751 5751 5750 5749 5747 5746 5744 5741 5739 5736 5733 5729 5726 5722
5731 5733 5734 5736 5738 5739 5741 5742 5744 5745 5746 5747 5748 5749 5750 5750 5751 5751 5752 5752 5752 5752 5752 5752 5751 5750 5748 5747 5745 5743 5741 5738 5736 5732 5729 5726 5721 5717
5732 5734 5736 5737 5739 5740 5742 5744 5745 5746 5747 5748 5749 5749 5750 5751 5751 5752 5752 5752 5752 5752 5752 5751 5750 5749 5748 5746 5744 5741 5738 5736 5732 5729 5725 5721 5717 5713
5733 5735 5737 5739 5741 5742 5744 5745 5746 5747 5748 5749 5750 5750 5751 5752 5752 5752 5752 5752 5752 5752 5751 5750 5749 5748 5746 5744 5742 5739 5736 5732 5729 5725 5721 5717 5713 5708
5735 5737 5739 5741 5742 5744 5745 5746 5747 5748 5749 5750 5751 5751 5752 5752 5753 5753 5753 5752 5752 5751 5750 5749 5747 5746 5744 5742 5739 5736 5732 5728 5725 5721 5717 5712 5707 5702
5738 5740 5741 5743 5744 5745 5746 5748 5749 5750 5750 5751 5752 5752 5753 5753 5753 5753 5752 5752 5751 5750 5749 5747 5745 5743 5741 5739 5736 5733 5729 5724 5720 5715 5711 5706 5701 5696
5740 5742 5743 5745 5746 5747 5748 5749 5750 5751 5751 5752 5753 5753 5753 5753 5753 5753 5752 5751 5750 5749 5747 5745 5743 5741 5738 5736 5732 5729 5725 5720 5715 5710 5704 5699 5693 5686
5743 5744 5745 5747 5748 5749 5750 5751 5751 5752 5752 5753 5753 5753 5753 5753 5752 5751 5750 5749 5748 5747 5745 5743 5740 5738 5735 5731 5728 5724 5720 5715 5710 5705 5700 5693 5686 5680